Zurück zum Katalog

ECHOSTAR 1

AktivKommunikationGEO
NORAD 23754·PAYLOAD·🇺🇸 United States

Gestartet Dec 28, 1995 von Xichang Satellite Launch Center

Loading…

TLE

AktuellSource: Space-Track

Epoche: Sep 14, 2026, 10:51 UTC

1 23754U 95073A   26257.45223128 -.00000075  00000-0  00000-0 0  9997
2 23754   8.8328  61.8986 0001860 147.4877  46.3811  0.98931094 52882

Verfolge ECHOSTAR 1 in Echtzeit mit AllMySat

Download on the App Store